QPF
0.09 0.16 0.14 0.09 0.06 0.04 0.03 0.02 0.00 0.00 0.00 0.00 0.00 0.00 0.00 0.00 0.00 0.00 0.00 0.00 0.00 0.00
0.02 0.02 0.02 0.02 0.01 0.02 0.02 0.01 0.00 0.00 0.00 0.00 0.00 0.00 0.00 0.00 0.00 0.00 0.00 0.00 0.00 0.00
0.01 0.00 0.00 0.01 0.04 0.04 0.02 0.01 0.00 0.00 0.00 0.00 0.00 0.00 0.00 0.00 0.00 0.00 0.00 0.00 0.00 0.00
0.01 0.02 0.03 0.04 0.04 0.03 0.02 0.01 0.00 0.00 0.00 0.00 0.00 0.00 0.00 0.00 0.00 0.00 0.00 0.00 0.00 0.00
0.02 0.02 0.03 0.04 0.04 0.03 0.02 0.01 0.00 0.00 0.00 0.00 0.00 0.00 0.00 0.00 0.00 0.00 0.00 0.00 0.00 0.00
0.01 0.02 0.05 0.06 0.06 0.03 0.01 0.00 0.00 0.00 0.00 0.00 0.00 0.00 0.00 0.00 0.00 0.00 0.00 0.00 0.00 0.00
0.00 0.00 0.01 0.01 0.01 0.00 0.00 0.00 0.00 0.00 0.00 0.00 0.00 0.00 0.00 0.00 0.00 0.00 0.00 0.00 0.00 0.00
0.00 0.01 0.00 0.00 0.00 0.00 0.00 0.00 0.00 0.00 0.00 0.00 0.00 0.00 0.00 0.00 0.00 0.00 0.00 0.00 0.00 0.00
0.00 0.00 0.00 0.00 0.00 0.00 0.00 0.00 0.00 0.00 0.00 0.00 0.00 0.00 0.00 0.00 0.00 0.00 0.00 0.00 0.00 0.00
0.00 0.00 0.00 0.00 0.00 0.00 0.00 0.00 0.00 0.00 0.00 0.00 0.00 0.00 0.00 0.00 0.00 0.00 0.00 0.00 0.00 0.00
0.00 0.00 0.00 0.00 0.00 0.00 0.00 0.00 0.00 0.00 0.00 0.00 0.00 0.00 0.00 0.00 0.00 0.00 0.00 0.00 0.00 0.00
0.00 0.00 0.00 0.00 0.00 0.00 0.00 0.00 0.00 0.00 0.00 0.00 0.00 0.00 0.00 0.00 0.00 0.00 0.00 0.00 0.00 0.00
0.00 0.00 0.00 0.00 0.00 0.00 0.00 0.00 0.00 0.00 0.00 0.00 0.00 0.00 0.00 0.00 0.00 0.00 0.00 0.00 0.00 0.00
0.00 0.00 0.00 0.00 0.00 0.00 0.00 0.00 0.00 0.00 0.00 0.00 0.00 0.00 0.00 0.00 0.00 0.00 0.00 0.00 0.00 0.00
MSLP
1017.24 1017.69 1018.21 1018.41 1018.72 1019.31 1020.02 1020.77 1021.33 1021.87 1022.26 1022.68 1023.22 1024.01 1024.65 1025.17 1025.57 1025.07 1024.82 1024.79 1024.72 1024.45
1016.24 1017.16 1017.59 1018.01 1018.46 1019.09 1019.86 1020.42 1021.08 1021.73 1022.16 1022.48 1023.25 1024.08 1024.83 1024.94 1025.11 1024.66 1024.73 1024.60 1024.43 1024.64
1016.03 1016.51 1017.00 1017.49 1018.00 1018.71 1019.44 1019.95 1020.71 1021.29 1021.73 1022.49 1023.09 1023.81 1024.51 1024.61 1024.55 1024.50 1024.74 1024.73 1024.44 1024.33
1015.66 1016.00 1016.41 1016.91 1017.68 1018.23 1018.82 1019.36 1020.14 1020.83 1021.26 1022.10 1022.70 1023.43 1023.96 1024.08 1024.38 1024.54 1025.07 1024.55 1024.36 1024.20
1015.03 1015.70 1016.38 1017.11 1017.68 1018.37 1019.14 1019.81 1020.20 1020.42 1021.07 1021.74 1022.30 1022.91 1023.61 1024.08 1024.60 1024.70 1024.45 1023.87 1023.71 1023.70
1015.04 1015.96 1016.69 1017.23 1017.89 1018.55 1019.03 1019.50 1019.95 1020.60 1021.52 1022.14 1022.73 1023.22 1023.78 1024.14 1024.84 1024.65 1024.26 1023.75 1023.29 1023.04
1014.97 1015.68 1016.25 1017.01 1017.79 1018.38 1018.97 1019.45 1020.09 1020.81 1021.63 1022.17 1022.86 1023.05 1023.89 1024.38 1024.57 1024.44 1024.00 1023.53 1023.13 1022.80
1015.25 1015.88 1016.50 1017.17 1017.71 1018.33 1018.73 1019.67 1020.40 1021.13 1021.63 1022.08 1023.03 1023.31 1023.70 1024.23 1024.35 1024.12 1023.32 1022.81 1022.40 1022.17
1015.86 1016.60 1017.18 1017.93 1018.56 1019.28 1019.80 1020.33 1021.02 1021.22 1021.82 1022.24 1022.60 1023.17 1023.64 1024.07 1024.01 1023.61 1022.84 1022.15 1021.71 1021.42
1016.78 1017.49 1018.23 1018.87 1019.39 1020.02 1020.29 1020.97 1021.20 1021.73 1021.57 1022.10 1022.44 1022.86 1023.38 1023.66 1023.60 1022.87 1022.13 1021.58 1021.12 1020.78
1017.48 1018.16 1018.93 1019.40 1019.81 1020.54 1020.99 1021.34 1021.42 1021.66 1021.92 1021.90 1022.23 1022.80 1023.05 1023.22 1023.07 1022.26 1021.48 1021.04 1020.71 1020.38
1018.16 1018.58 1019.10 1019.63 1020.18 1020.51 1020.73 1021.13 1021.17 1021.69 1022.05 1022.32 1022.35 1022.17 1022.50 1022.92 1022.30 1021.53 1020.94 1020.55 1020.16 1019.81
1018.63 1018.94 1019.42 1019.91 1020.70 1021.20 1021.36 1021.44 1021.50 1021.35 1021.35 1021.44 1021.62 1021.53 1022.04 1022.39 1021.87 1021.05 1020.44 1020.03 1019.52 1019.31
1019.94 1020.37 1020.53 1020.46 1020.63 1020.78 1020.82 1021.01 1021.18 1021.36 1021.32 1021.27 1021.28 1021.31 1021.62 1021.75 1021.55 1020.75 1019.93 1019.38 1018.79 1018.50
Thickness
5606 5604 5599 5598 5595 5590 5581 5572 5564 5556 5550 5542 5534 5523 5515 5506 5496 5490 5484 5478 5473 5468
5612 5605 5602 5598 5593 5585 5574 5566 5558 5549 5543 5536 5525 5513 5503 5495 5485 5482 5474 5467 5461 5453
5609 5607 5602 5596 5589 5579 5569 5562 5553 5544 5536 5527 5517 5506 5495 5485 5476 5470 5460 5452 5448 5442
5608 5604 5598 5592 5583 5575 5567 5559 5549 5538 5531 5519 5510 5498 5485 5477 5467 5459 5446 5442 5434 5428
5607 5599 5590 5581 5573 5564 5554 5545 5537 5532 5523 5511 5501 5487 5475 5465 5453 5442 5436 5433 5427 5419
5597 5587 5578 5570 5561 5553 5545 5537 5529 5519 5506 5494 5483 5472 5461 5451 5437 5429 5425 5420 5416 5409
5589 5581 5573 5564 5553 5545 5536 5527 5515 5504 5492 5480 5468 5460 5447 5437 5427 5419 5414 5408 5402 5394
5580 5572 5563 5553 5545 5536 5528 5513 5501 5489 5478 5469 5456 5447 5436 5424 5415 5408 5405 5399 5391 5382
5565 5556 5547 5536 5526 5514 5505 5496 5484 5477 5465 5454 5445 5434 5422 5411 5403 5397 5393 5388 5381 5372
5547 5536 5526 5516 5508 5497 5490 5478 5469 5458 5453 5440 5431 5420 5408 5399 5392 5388 5383 5376 5369 5361
5530 5521 5511 5502 5493 5480 5470 5460 5453 5444 5435 5428 5417 5405 5396 5388 5381 5377 5372 5364 5355 5347
5515 5506 5497 5487 5476 5468 5459 5448 5441 5428 5417 5408 5402 5396 5386 5375 5371 5366 5359 5351 5343 5334
5499 5490 5481 5471 5458 5447 5439 5431 5423 5418 5411 5403 5393 5384 5371 5359 5356 5354 5347 5339 5331 5320
5474 5464 5457 5452 5445 5437 5430 5421 5413 5403 5395 5388 5380 5371 5359 5346 5338 5334 5333 5325 5318 5307